Volver al catálogo

RTU MIREA 1

ActivoRadioaficionadoSSO
NORAD 61785·PAYLOAD·🇷🇺 Russia

Lanzado Nov 4, 2024 desde Vostochny Cosmodrome

Loading…

Próximos Pases (próximas 24 horas)

TLE

ActualizadoSource: Space-Track

Época: Sep 14, 2026, 10:42 UTC

1 61785U 24199BC  26257.44642559  .00087030  00000-0  63036-3 0  9992
2 61785  97.2726 137.3716 0002503 316.9185  43.1883 15.73179765148442

Sigue RTU MIREA 1 en tiempo real con AllMySat

Download on the App Store